This demonstration page uses our WeatherBlox Daily Observations layout. Learn more.

Left ArrowRight Arrow

Hourly Observations for December 15, 2019

Temp ( °F °C ) Dew Point ( °F °C ) Humidity (%) Winds ( mph kmh ) Pressure ( in mb ) Visibility ( mi km ) Precip ( " mm )
12:51 am 00:51 Clear 47 8.3 42 5.6 83 83 NNE 6 9 29.72 1006 10 16 N/A
1:51 am 01:51 Clear 47 8.3 42 5.6 83 83 VRB 3 6 29.72 1006 10 16 N/A
2:51 am 02:51 Mostly Clear 48 8.9 42 5.6 80 80 ENE 3 6 29.71 1006 10 16 N/A
3:51 am 03:51 Clear 45 7.2 41 5 86 86 E 5 7 29.72 1006 10 16 N/A
4:51 am 04:51 Clear 44 6.7 41 5 89 89 VRB 5 7 29.72 1007 10 16 N/A
5:51 am 05:51 Clear 42 5.6 39 3.9 89 89 NNE 5 7 29.74 1007 10 16 N/A
6:51 am 06:51 Clear 42 5.6 39 3.9 89 89 E 6 9 29.76 1008 10 16 N/A
7:51 am 07:51 Sunny 45 7.2 40 4.4 83 83 N N/A 29.79 1009 10 16 N/A
8:51 am 08:51 Sunny 51 10.6 43 6.1 74 74 N N/A 29.79 1009 10 16 N/A
9:51 am 09:51 Sunny 57 13.9 43 6.1 60 60 N N/A 29.80 1009 10 16 N/A
10:51 am 10:51 Sunny 61 16.1 40 4.4 46 46 W 7 11 29.79 1009 10 16 N/A
11:51 am 11:51 Sunny 62 16.7 39 3.9 43 43 WNW 6 9 29.78 1008 10 16 N/A
12:51 pm 12:51 Sunny 64 17.8 35 1.7 34 34 NW 17 28 29.75 1007 10 16 N/A
1:51 pm 13:51 Sunny 65 18.3 30 -1.1 27 27 NW 18 30 29.72 1007 10 16 N/A
2:51 pm 14:51 Sunny 63 17.2 29 -1.7 28 28 WNW 24 39 29.72 1007 10 16 N/A
3:51 pm 15:51 Sunny 61 16.1 33 0.6 35 35 NW 18 30 29.75 1008 10 16 N/A
4:51 pm 16:51 Sunny 57 13.9 35 1.7 44 44 NW 20 31 29.78 1009 10 16 N/A
5:51 pm 17:51 Clear 53 11.7 35 1.7 51 51 NW 18 30 29.83 1010 10 16 N/A
6:51 pm 18:51 Clear 52 11.1 34 1.1 50 50 NW 18 30 29.85 1011 10 16 N/A
7:51 pm 19:51 Clear 50 10 35 1.7 57 57 NW 18 30 29.88 1012 10 16 N/A
8:51 pm 20:51 Clear 49 9.4 31 -0.6 50 50 NNW 18 30 29.91 1013 10 16 N/A
9:51 pm 21:51 Clear 47 8.3 30 -1.1 52 52 NW 20 31 29.92 1013 10 16 N/A
10:51 pm 22:51 Clear 45 7.2 31 -0.6 58 58 WNW 16 26 29.94 1014 10 16 N/A
11:51 pm 23:51 Clear 43 6.1 30 -1.1 60 60 NW 12 19 29.96 1014 10 16 N/A

Powered by AerisWeather